User: anonymous   Login
Location: Kawakawa
(35.3830°S, 174.0670°E)
Time: 09:57:01
(UTC+13:00)
Language:

Cosmos 1271 Rocket - Orbit

View from above orbital plane
View from above orbital plane
View from above satellite
View from above satellite

Ground track
Ground track

The orbit data is extracted from the following two-line orbital elements,

1 12465U 81046B   19286.91760388 +.00000780 +00000-0 +40421-4 0  9995
2 12465 081.2404 128.9487 0034348 005.9507 354.2122 15.14479549082813
Epoch (UTC): 13 October 2019 22:01:20
Eccentricity: 0.0034348
inclination: 81.2404°
perigee height: 499 km
apogee height: 546 km
right ascension of ascending node: 128.9487°
argument of perigee: 5.9507°
revolutions per day: 15.14479549
mean anomaly at epoch: 354.2122°
orbit number at epoch: 8281

The dashed part of the orbit path shows where the satellite is in the earth's shadow,  

DLR